Regional Weather Roundup
Issued by NWS

Home | Current Version | Previous Version | Graphics & Text | Print | Product List | Glossary On
Versions: 1 2 3 4 5 6 7 8 9 10 11 12 13 14 15 16 17 18 19 20 21 22 23 24 25 26 27 28 29 30 31 32 33 34 35 36 37 38 39 40 41 42 43 44 45 46 47 48 49 50
000
ASUS43 KLMK 271910
RWRKY
KENTUCKY REGIONAL WEATHER ROUNDUP
NATIONAL WEATHER SERVICE LOUISVILLE KY
300 PM EDT WED AUG 27 2014

NOTE "FAIR" INDICATES FEW OR NO CLOUDS BELOW 12,000 FEET
WITH NO SIGNIFICANT WEATHER AND/OR OBSTRUCTIONS TO VISIBILITY.

KYZ001>023-026-027-061>063-070>075-272000-
WESTERN AND SOUTH CENTRAL KENTUCKY

CITY           SKY/WX    TMP DP  RH WIND       PRES   REMARKS
PADUCAH        SUNNY     95  72  47 VRB6      30.06F HX 103
HENDERSON      SUNNY     91  73  55 CALM      30.06F HX 100
OWENSBORO      MOSUNNY   90  73  57 NE7       30.07F HX  98
HOPKINSVILLE   SUNNY     91  73  55 NE7       30.07F HX  99
BOWLING GREEN  MOSUNNY   90  72  55 NE7       30.08F HX  97
GLASGOW        SUNNY     88  70  54 CALM      30.09F HX  93
$$

KYZ024-025-028>034-038-045-046-053-272000-
NORTH CENTRAL KENTUCKY

CITY           SKY/WX    TMP DP  RH WIND       PRES   REMARKS
LOUISVILLE/SDF PTSUNNY   92  73  53 NW6       30.05F HX 100
LOUISVILLE/LOU MOSUNNY   90  73  57 VRB6      30.06F HX  98
FORT KNOX      SUNNY     89  73  58 S3        30.07F HX  97
$$

KYZ035>037-039>044-047>052-055>060-089>105-272000-
NORTHEAST KENTUCKY

CITY           SKY/WX    TMP DP  RH WIND       PRES   REMARKS
LEXINGTON      MOSUNNY   88  70  55 CALM      30.09F HX  93
COVINGTON      MOSUNNY   89  68  49 VRB5      30.07F HX  93
FRANKFORT      MOSUNNY   90  70  51 VRB3      30.07F HX  95
$$

KYZ054-064>069-076>088-106>120-272000-
SOUTHEAST KENTUCKY

CITY           SKY/WX    TMP DP  RH WIND       PRES   REMARKS
JACKSON        PTSUNNY   83  67  58 CALM      30.12F
LONDON         SUNNY     87  66  49 NE8       30.12F
SOMERSET       CLOUDY    86  66  51 E5        30.11F
MIDDLESBORO    SUNNY     86  61  42 CALM      30.11F
MONTICELLO     CLEAR     87  71  58 NE9       30.12F HX  92
$$




USA.gov is the U.S. government's official web portal to all federal, state and local government web resources and services.